McAllen, TX

1:25 PM CDT on June 25, 2017 (GMT -0500)
McAllen Miller International

Weather History for KMFE - October, 2012

Change the Weather History Date:

Thursday, October 25, 2012

  Actual Average Record
Temperature  
Mean Temperature 82 °F 75 °F  
Max Temperature 94 °F 86 °F 95 °F (1942)
Min Temperature 70 °F 65 °F 46 °F (1993)
Degree Days  
Heating Degree Days 0 0  
Month to date heating degree days 0 0  
Since 1 July heating degree days 0 0  
Cooling Degree Days 17 11  
Month to date cooling degree days 425 324  
Year to date cooling degree days 4844 4123  
Growing Degree Days 32 (Base 50)    
Moisture  
Dew Point 64 °F    
Average Humidity 59    
Maximum Humidity 90    
Minimum Humidity 28    
Precipitation  
Precipitation 0.00 in 0.06 in 4.38 in (1974)
Month to date precipitation 1.39 1.75  
Year to date precipitation 16.63 19.79  
Sea Level Pressure  
Sea Level Pressure 29.82 in    
Wind  
Wind Speed 12 mph (SE)    
Max Wind Speed 22 mph    
Max Gust Speed 26 mph    
Visibility 10 miles    
Events      
T = Trace of Precipitation, MM = Missing Value Source: NWS Daily Summary

Daily Weather History Graph

Daily Weather History Graph

Search for Another Location

Airport or City:

Trip Planner

Search our weather history database for the weather conditions in past years. The results will help you decide how hot, cold, wet, or windy it might be!

Date:

Astronomy

Oct. 25, 2012 Rise Set
Actual Time 7:37 AM CDT 6:55 PM CDT
Civil Twilight 7:14 AM CDT 7:19 PM CDT
Nautical Twilight 6:47 AM CDT 7:46 PM CDT
Astronomical Twilight 6:20 AM CDT 8:13 PM CDT
Moon 4:25 PM CDT 3:56 AM CDT
Length of Visible Light 12h 04m
Length of Day
11h 17m
Waxing Gibbous, 84% of the Moon is Illuminated
Oct 25
Waxing Gibbous
Oct 29
Full
Nov 6
Last Quarter
Nov 13
New
Nov 20
First Quarter

Hourly Weather History & Observations

Time (CDT) Temp. Heat Index Dew Point Humidity Pressure Visibility Wind Dir Wind Speed Gust Speed Precip Events Conditions
12:53 AM 73.9 °F - 66.9 °F 79% 29.85 in 10.0 mi SE 9.2 mph - N/A   Clear
1:53 AM 73.0 °F - 66.9 °F 81% 29.85 in 10.0 mi SE 8.1 mph - N/A   Clear
2:53 AM 73.0 °F - 66.9 °F 81% 29.83 in 10.0 mi SE 6.9 mph - N/A   Scattered Clouds
3:53 AM 72.0 °F - 66.9 °F 84% 29.82 in 10.0 mi SE 4.6 mph - N/A   Clear
4:53 AM 71.1 °F - 66.9 °F 87% 29.82 in 10.0 mi SE 5.8 mph - N/A   Clear
5:53 AM 72.0 °F - 68.0 °F 87% 29.82 in 10.0 mi SSE 6.9 mph - N/A   Clear
6:53 AM 71.1 °F - 68.0 °F 90% 29.83 in 10.0 mi SSE 6.9 mph - N/A   Clear
7:53 AM 71.1 °F - 68.0 °F 90% 29.83 in 10.0 mi SE 6.9 mph - N/A   Clear
8:53 AM 73.9 °F - 69.1 °F 85% 29.85 in 10.0 mi SE 6.9 mph - N/A   Clear
9:53 AM 79.0 °F - 69.1 °F 72% 29.85 in 10.0 mi SSE 15.0 mph - N/A   Clear
10:53 AM 84.0 °F 85.8 °F 64.9 °F 53% 29.85 in 10.0 mi SSE 16.1 mph 23.0 mph N/A   Clear
11:53 AM 88.0 °F 87.1 °F 59.0 °F 37% 29.85 in 10.0 mi SE 13.8 mph 18.4 mph N/A   Clear
12:53 PM 90.0 °F 88.1 °F 55.9 °F 31% 29.82 in 10.0 mi SE 15.0 mph 21.9 mph N/A   Clear
1:53 PM 93.0 °F 91.1 °F 55.0 °F 28% 29.78 in 10.0 mi SSE 13.8 mph 23.0 mph N/A   Clear
2:53 PM 93.2 °F 91.9 °F 57.2 °F 30% 29.77 in 10.0 mi SE 16.1 mph 21.9 mph N/A   Clear
3:53 PM 93.0 °F 92.0 °F 57.9 °F 31% 29.75 in 10.0 mi SE 16.1 mph - N/A   Clear
4:53 PM 91.9 °F 89.5 °F 54.0 °F 27% 29.76 in 10.0 mi ESE 16.1 mph 23.0 mph N/A   Clear
5:53 PM 90.0 °F 87.5 °F 53.1 °F 28% 29.77 in 10.0 mi SE 16.1 mph - N/A   Clear
6:53 PM 86.0 °F 85.0 °F 57.9 °F 38% 29.79 in 10.0 mi SE 12.7 mph - N/A   Clear
7:53 PM 84.0 °F 87.0 °F 68.0 °F 58% 29.82 in 10.0 mi SE 13.8 mph 21.9 mph N/A   Clear
8:53 PM 82.0 °F 85.9 °F 70.0 °F 67% 29.84 in 10.0 mi SE 17.3 mph - N/A   Clear
9:53 PM 80.1 °F 83.2 °F 70.0 °F 71% 29.86 in 10.0 mi SE 11.5 mph - N/A   Partly Cloudy
10:53 PM 79.0 °F - 71.1 °F 77% 29.88 in 10.0 mi SE 10.4 mph - N/A   Clear
11:53 PM 78.1 °F - 71.1 °F 79% 29.88 in 10.0 mi SE 10.4 mph - N/A   Clear